ES'HAIL 1

Last updated on Sun Jun 21 2026 00:03:05 GMT+0000 (Coordinated Universal Time)

1 39233U 13044A 26171.18319701 .00000138 00000+0 00000+0 0 9999 2 39233 0.0469 356.4073 0001948 84.9069 278.5020 1.00270066 46654
UTC large
Height (km)
Speed (km/s)
/
Latitude / Longitude
Inclination (degrees)
Orbital Period (minutes)
Azimuth
Elevation
Range (km)
Doppler Factor

Next 0 passes for location: London (51.5072 / 0.1276)

No passes found over London.
ES'HAIL 1